Flag for U.S.A. Weather past 2 weeks in Inglewood, California, U.S.A.

Now
70 °F

Clear.


Feels Like: 69 °F
Forecast: 68 / 80 °F
Wind: No wind

Location: Hawthorne Municipal Airport

Current Time: Jul 28, 2014 at 6:26:45 AM

Latest Report: Jul 28, 2014 at 5:53 AM


Visibility: 10 mi

Pressure: 30.03 "Hg

Humidity: 84%

Dew point: 65 °F

Location of InglewoodLocation

Historic Weather in Inglewood — Graph

°F

Inglewood temperature yesterday

Maximum temperature yesterday: 79 °F (at 12:53 PM)
Minimum temperature yesterday: 67 °F (at 3:53 AM)
Average temperature yesterday: 72 °F

Past Weeks' High & Low Weather Summary

 TemperatureHumidityPressure
High86 °F (Jul 24, 10:53 AM)96% (Jul 26, 7:53 AM)30.07 "Hg (Jul 26, 7:53 AM)
Low66 °F (Jul 18, 3:53 AM)41% (Jul 23, 1:53 PM)29.74 "Hg (Jul 24, 5:53 PM)
Average72 °F73%29.96 "Hg
* Reported Jul 13 5:53 AM — Jul 28 5:04 AM, Inglewood, Weather by CustomWeather, © 2014

Note: Actual official high and low records may vary slightly from our data, if they occured in-between our weather recording intervals... More about our weather records

Advertising

Inglewood weather history for previous 24 hours

 ConditionsComfort  
Time TempWeatherWind HumidityBarometerVisibility
5:04 AM
Jul 28
70 °FPassing clouds.No wind83%30.04 "Hg10 mi
4:53 AM69 °FPassing clouds.No wind87%30.03 "Hg10 mi
3:53 AM69 °FClear.5 mph87%30.03 "Hg10 mi
2:53 AM69 °FOvercast.5 mph87%30.02 "Hg10 mi
1:53 AM70 °FClear.3 mph84%30.01 "Hg10 mi
12:53 AM70 °FClear.7 mph87%30.02 "Hg10 mi
11:53 PM
Jul 27
69 °FPassing clouds.5 mph87%30.01 "Hg10 mi
10:53 PM69 °FClear.5 mph84%29.98 "Hg10 mi
9:53 PM69 °FClear.9 mph84%29.95 "Hg10 mi
8:53 PM70 °FSunny.6 mph84%29.93 "Hg10 mi
7:53 PM72 °FSunny.7 mph73%29.92 "Hg10 mi
6:53 PM75 °FSunny.7 mph60%29.92 "Hg10 mi
5:53 PM77 °FSunny.7 mph60%29.93 "Hg10 mi
4:53 PM77 °FSunny.12 mph64%29.94 "Hg10 mi
3:53 PM77 °FSunny.10 mph64%29.95 "Hg10 mi
2:53 PM75 °FSunny.9 mph69%29.98 "Hg10 mi
1:53 PM75 °FLight rain. Partly sunny.10 mph69%30.01 "Hg10 mi
12:53 PM79 °FSunny.8 mph60%30.00 "Hg10 mi
11:53 AM77 °FSunny.3 mph64%30.02 "Hg10 mi
10:53 AM74 °FSunny.5 mph71%30.02 "Hg10 mi
9:53 AM73 °FSunny.6 mph74%30.01 "Hg10 mi
8:53 AM71 °FSunny.No wind78%30.01 "Hg10 mi
7:53 AM69 °FSunny.No wind84%29.99 "Hg10 mi
6:53 AM68 °FPassing clouds.No wind87%29.98 "Hg10 mi
Weather by CustomWeather, © 2014

See weather overviewHow to use our weather pages